This is the latest recevied weather packets stored in our database for station/object SQ9SMC-13. If no packets are shown the sender has not sent any weather packets the latest 10 day(s).
| Time | Temp. | Humidity | Pressure | Rain* | Wind** | Luminosity | Snow |
|---|---|---|---|---|---|---|---|
| 1777338903 | 1.67° C | 81% | 1024.1 hPa | 0 mm | - | 0 W/m² | - |
| 1777338603 | 1.67° C | 81% | 1023.9 hPa | 0 mm | - | 0 W/m² | - |
| 1777338303 | 1.67° C | 81% | 1023.8 hPa | 0 mm | - | 0 W/m² | - |
| 1777338006 | 1.67° C | 82% | 1023.8 hPa | 0 mm | - | 0 W/m² | - |
| 1777337703 | 1.67° C | 81% | 1024 hPa | 0 mm | - | 0 W/m² | - |
| 1777337403 | 2.22° C | 80% | 1023.8 hPa | 0 mm | - | 0 W/m² | - |
| 1777337103 | 2.22° C | 79% | 1023.9 hPa | 0 mm | - | 0 W/m² | - |
| 1777336804 | 2.22° C | 79% | 1023.8 hPa | 0 mm | - | 0 W/m² | - |
| 1777336502 | 2.22° C | 80% | 1023.7 hPa | 0 mm | - | 0 W/m² | - |
| 1777336203 | 2.22° C | 80% | 1023.8 hPa | 0 mm | - | 0 W/m² | - |
| 1777335905 | 1.67° C | 83% | 1023.8 hPa | 0 mm | - | 0 W/m² | - |
| 1777335603 | 1.11° C | 85% | 1023.7 hPa | 0 mm | - | 0 W/m² | - |
| 1777335305 | 0.56° C | 88% | 1023.5 hPa | 0 mm | - | 0 W/m² | - |
| 1777335003 | 0.56° C | 88% | 1023.4 hPa | 0 mm | - | 0 W/m² | - |
| 1777334704 | 0° C | 89% | 1023.5 hPa | 0 mm | - | 0 W/m² | - |
| 1777334404 | 0° C | 89% | 1023.6 hPa | 0 mm | - | 0 W/m² | - |
| 1777334105 | 0° C | 88% | 1023.5 hPa | 0 mm | - | 0 W/m² | - |
| 1777333804 | 0° C | 89% | 1023.4 hPa | 0 mm | - | 0 W/m² | - |
| 1777333503 | 0° C | 89% | 1023.2 hPa | 0 mm | - | 0 W/m² | - |
| 1777333202 | 0° C | 88% | 1023.4 hPa | 0 mm | - | 0 W/m² | - |
| 1777332903 | 0° C | 88% | 1023.2 hPa | 0 mm | - | 0 W/m² | - |
| 1777332603 | 0° C | 87% | 1023.4 hPa | 0 mm | - | 0 W/m² | - |
| 1777332303 | 0° C | 87% | 1023.1 hPa | 0 mm | - | 0 W/m² | - |
| 1777332002 | 0.56° C | 87% | 1023.1 hPa | 0 mm | - | 0 W/m² | - |
| 1777331703 | 0° C | 88% | 1023.1 hPa | 0 mm | - | 0 W/m² | - |
* Rain latest hour (hover to see other rain measurements)
** Current wind speed in m/s (hover to see current wind gust speed)